KINEIS-1D

Last updated on Thu Aug 20 2026 00:02:52 GMT+0000 (Coordinated Universal Time)

1 60082U 24114D 26231.61691963 .00000465 00000+0 74212-4 0 9997 2 60082 97.9883 251.0648 0001877 44.4729 315.6631 14.76397571116486
UTC large
Height (km)
Speed (km/s)
/
Latitude / Longitude
Inclination (degrees)
Orbital Period (minutes)
Azimuth
Elevation
Range (km)
Doppler Factor

Next 0 passes for location: London (51.5072 / 0.1276)

No passes found over London.
KINEIS-1D